Regional Weather Roundup
Issued by NWS

Home | Current Version | Previous Version | Text Only | Print | Product List | Glossary Off
Versions: 1 2 3 4 5 6 7 8 9 10 11 12 13 14 15 16 17 18 19 20 21 22 23 24 25 26 27 28 29 30 31 32 33 34 35 36 37 38 39 40 41 42 43 44 45 46 47 48 49 50

000
ASUS43 KDTX 020610
RWRMI
MICHIGAN HOURLY REGIONAL WEATHER ROUNDUP
NATIONAL WEATHER SERVICE DETROIT/PONTIAC MI
200 AM EDT THU JUL 02 2015

NOTE: "FAIR" INDICATES FEW OR NO CLOUDS BELOW 12,000 FEET WITH NO
SIGNIFICANT WEATHER AND/OR OBSTRUCTION TO VISIBILITY.

MIZ047>049-052>055-059>063-066>070-074>076-081>083-020700-
SOUTHEAST LOWER MICHIGAN

CITY           SKY/WX    TMP DP  RH WIND       PRES   REMARKS
ADRIAN         PTCLDY    58  54  86 CALM      29.97S
6HR MIN TEMP:  57; 6HR MAX TEMP:  70;

ANN ARBOR      PTCLDY    51  50  96 CALM      29.96F
DETROIT CITY   PTCLDY    59  56  89 NE3       29.97S
6HR MIN TEMP:  59; 6HR MAX TEMP:  67;

DETROIT        MOCLDY    60  55  83 N3        29.96S
6HR MIN TEMP:  60; 6HR MAX TEMP:  70;

FLINT          CLOUDY    58  54  86 E5        29.98R
6HR MIN TEMP:  58; 6HR MAX TEMP:  66;


CITY           SKY/WX    TMP DP  RH WIND       PRES   REMARKS
JACKSON        FOG       53  52  96 CALM      29.97S VSB 1/2
6HR MIN TEMP:  53; 6HR MAX TEMP:  65;

LANSING        CLEAR     56  53  90 N6        29.99R
6HR MIN TEMP:  56; 6HR MAX TEMP:  66;

LAPEER         NOT AVBL
MONROE         MOCLDY    59  56  90 CALM      29.95F
6HR MIN TEMP:  59; 6HR MAX TEMP:  67;

MT. CLEMENS    CLOUDY    59  57  94 N6        29.95S
6HR MIN TEMP:  58; 6HR MAX TEMP:  66;

PONTIAC        CLOUDY    58  56  93 NE7       29.97S
6HR MIN TEMP:  56; 6HR MAX TEMP:  64;

PORT HOPE        N/A     58  54  86 NW3       29.98S
6HR MIN TEMP:  57; 6HR MAX TEMP:  60;

PORT HURON     CLOUDY    59  57  94 CALM      29.98S
TRI CITIES     CLOUDY    61  54  77 N7        30.00S
6HR MIN TEMP:  61; 6HR MAX TEMP:  68;

MIDLAND        NOT AVBL
$$
MIZ043>046-050>051-056>058-064>065-071>073-077>080-020700-
SOUTHWEST LOWER MICHIGAN

CITY           SKY/WX    TMP DP  RH WIND       PRES   REMARKS
BATTLE CREEK   CLEAR     56  52  86 N3        29.98S
6HR MIN TEMP:  55; 6HR MAX TEMP:  65;

BENTON HARBOR  PTCLDY    51  50  96 CALM      29.98S
6HR MIN TEMP:  51; 6HR MAX TEMP:  58;

HOLLAND        CLEAR     55  52  89 N3        29.99F
6HR MIN TEMP:  55; 6HR MAX TEMP:  60;

GRAND RAPIDS   CLEAR     54  52  93 N5        29.99S
6HR MIN TEMP:  54; 6HR MAX TEMP:  63;

KALAMAZOO      CLEAR     54  51  90 N5        29.98S
6HR MIN TEMP:  53; 6HR MAX TEMP:  63;

MUSKEGON       CLEAR     56  51  84 N7        30.00S
6HR MIN TEMP:  55; 6HR MAX TEMP:  62;

$$
MIZ016>042-020700-
NORTHERN LOWER MICHIGAN

CITY           SKY/WX    TMP DP  RH WIND       PRES   REMARKS
ALPENA         PTCLDY    52  47  83 W3        30.01S
6HR MIN TEMP:  52; 6HR MAX TEMP:  62;

FRANKFORT      CLEAR     45  40  81 CALM      30.04R
GAYLORD        CLEAR     47  46  97 CALM      30.02S
6HR MIN TEMP:  46; 6HR MAX TEMP:  59;

HOUGHTON LAKE  CLEAR     47  46  97 NE3       30.02S FOG
6HR MIN TEMP:  47; 6HR MAX TEMP:  59;

MANISTEE       CLOUDY   N/A N/A N/A CALM      30.03S
PELLSTON       CLEAR     45  43  93 CALM      30.02F
6HR MIN TEMP:  45; 6HR MAX TEMP:  63;

TRAVERSE CITY  CLEAR     47  45  93 CALM      30.02R
6HR MIN TEMP:  46; 6HR MAX TEMP:  61;

$$
MIZ007>008-015-020700-
EASTERN UPPER MICHIGAN

CITY           SKY/WX    TMP DP  RH WIND       PRES   REMARKS
KINROSS        CLEAR     45  43  93 W5        30.02S
6HR MIN TEMP:  45; 6HR MAX TEMP:  55;

MACKINAC ISLAN CLEAR     49  45  83 N8        30.02S
6HR MIN TEMP:  49; 6HR MAX TEMP:  61; 6HR PCP:  0.04;

S. S. MARIE    CLEAR     45  41  86 W5        30.01S
6HR MIN TEMP:  45; 6HR MAX TEMP:  55;

MUNISING         N/A     44  41  89 S9        30.03S
6HR MIN TEMP:  44; 6HR MAX TEMP:  56;

$$
MIZ004>006-011>014-085-020700-
CENTRAL UPPER MICHIGAN

CITY           SKY/WX    TMP DP  RH WIND       PRES   REMARKS
ESCANABA       CLEAR     45  39  81 CALM      30.04S
6HR MIN TEMP:  45; 6HR MAX TEMP:  63;

MENOMINEE      CLEAR     48  43  81 CALM      30.04S
6HR MIN TEMP:  48; 6HR MAX TEMP:  64;

SAWYER-GWINN   PTCLDY    45  42  88 CALM      30.05S
$$
MIZ001>003-009>011-084-020700-
WESTERN UPPER MICHIGAN

CITY           SKY/WX    TMP DP  RH WIND       PRES   REMARKS
IRON MOUNTAIN  CLEAR     46  43  89 CALM      30.04F
6HR MIN TEMP:  45; 6HR MAX TEMP:  67;

HOUGHTON       CLOUDY    56  44  64 NW3       30.02S
6HR MIN TEMP:  51; 6HR MAX TEMP:  61;

COPPER HARBOR    N/A     54  48  80 W3        30.01S
6HR MIN TEMP:  51; 6HR MAX TEMP:  56;

IRONWOOD       CLEAR     48  46  93 CALM      30.01S
6HR MIN TEMP:  48; 6HR MAX TEMP:  64;

$$

ABBREVIATIONS USED IN REMARKS
   TC - TEMPERATURE IN CELSIUS
  WCI - WIND CHILL INDEX
   HX - HEAT INDEX
  VSB - VISIBILITY



USA.gov is the U.S. government's official web portal to all federal, state and local government web resources and services.